User: anonymous
Location: Summit Observatory
(39.5293°N, 75.7290°W)
Time: 06:20:03
(UTC-04:00)
Language:

Gurwin Techsat 1B - Orbit

View from above orbital plane
View from above orbital plane
View from above satellite
View from above satellite

Ground track
Ground track

The orbit data is extracted from the following two-line orbital elements,

1 25397U 98043D   14207.80541341  .00000018  00000-0  26321-4 0  4026
2 25397 098.4717 164.3218 0001707 149.6474 269.4413 14.23451622833507
Epoch (UTC): 26 July 2014 19:19:47
Eccentricity: 0.0001707
inclination: 98.4717°
perigee height: 812 km
apogee height: 815 km
right ascension of ascending node: 164.3218°
argument of perigee: 149.6474°
revolutions per day: 14.23451622
mean anomaly at epoch: 269.4413°
orbit number at epoch: 83350

The dashed part of the orbit path shows where the satellite is in the earth's shadow,  

DLR